Powrót do katalogu

CZ-6A DEB

AktywnyPO
NORAD 58433·DEBRIS·🇨🇳 China

Wystrzelony Nov 11, 2022 z Taiyuan Satellite Launch Center

Loading…

Następne Przeloty (najbliższe 24 godziny)

TLE

Starzejące sięSource: Space-Track

Epoka: Sep 7, 2026, 16:42 UTC

1 58433U 22151AJB 26250.69589771  .00067692  00000-0  21195-2 0  9991
2 58433  98.7752  55.4346 0043770 156.3303 203.9961 15.31903045180901

Śledź CZ-6A DEB w czasie rzeczywistym z AllMySat

Download on the App Store